User: anonymous   Login
Location: Unspecified
(0.0000°N, 0.0000°E)
Time: 15:09:52
(UTC+00:00)
Language:

Vela 6A - Orbit

View from above orbital plane
View from above orbital plane
View from above satellite
View from above satellite

Ground track
Ground track

The orbit data is extracted from the following two-line orbital elements,

1 04366U 70027A   15216.45564698  .00000664  00000-0  00000+0 0  9992
2 04366 049.5375 231.2891 6573797 082.2480 359.7179 00.21465324 29197
Epoch (UTC): 04 August 2015 10:56:07
Eccentricity: 0.6573797
inclination: 49.5375°
perigee height: 33991 km
apogee height: 188903 km
right ascension of ascending node: 231.2891°
argument of perigee: 82.2480°
revolutions per day: 0.21465324
mean anomaly at epoch: 359.7179°
orbit number at epoch: 2919

The dashed part of the orbit path shows where the satellite is in the earth's shadow,  

DLR